This is the latest recevied weather packets stored in our database for station/object IV3SCP-10. If no packets are shown the sender has not sent any weather packets the latest 10 day(s).
| Time | Temp. | Humidity | Pressure | Rain* | Wind** | Luminosity | Snow |
|---|---|---|---|---|---|---|---|
| 1788002254 | 32.22° C | 96% | 1012.3 hPa | - | - | - | - |
| 1788001352 | 30° C | 100% | 1012.4 hPa | - | - | - | - |
| 1788000452 | 30° C | 100% | 1012.4 hPa | - | - | - | - |
| 1787999551 | 30.56° C | 100% | 1012.5 hPa | - | - | - | - |
| 1787998651 | 30.56° C | 100% | 1012.4 hPa | - | - | - | - |
| 1787997751 | 30° C | 100% | 1012.4 hPa | - | - | - | - |
| 1787995950 | 28.89° C | 100% | 1012.4 hPa | - | - | - | - |
| 1787995050 | 28.89° C | 100% | 1012.3 hPa | - | - | - | - |
| 1787994149 | 28.33° C | 100% | 1012.3 hPa | - | - | - | - |
| 1787993248 | 28.33° C | 100% | 1012.2 hPa | - | - | - | - |
| 1787992348 | 28.89° C | 100% | 1012.2 hPa | - | - | - | - |
| 1787991448 | 27.78° C | 100% | 1012.2 hPa | - | - | - | - |
| 1787990548 | 28.33° C | 100% | 1012.2 hPa | - | - | - | - |
| 1787989651 | 26.67° C | 100% | 1012 hPa | - | - | - | - |
| 1787988811 | 27.78° C | 100% | 1011.8 hPa | - | - | - | - |
| 1787988747 | 27.78° C | 100% | 1011.8 hPa | - | - | - | - |
| 1787987847 | 28.33° C | 100% | 1011.6 hPa | - | - | - | - |
| 1787986946 | 27.22° C | 100% | 1011.4 hPa | - | - | - | - |
| 1787986046 | 25.56° C | 100% | 1011.3 hPa | - | - | - | - |
| 1787985146 | 25° C | 100% | 1011.2 hPa | - | - | - | - |
| 1787984246 | 24.44° C | 100% | 1011.2 hPa | - | - | - | - |
| 1787983345 | 23.89° C | 100% | 1011.2 hPa | - | - | - | - |
| 1787982445 | 22.78° C | 100% | 1011.2 hPa | - | - | - | - |
| 1787981549 | 22.22° C | 100% | 1011.1 hPa | - | - | - | - |
| 1787980645 | 21.11° C | 100% | 1011 hPa | - | - | - | - |
* Rain since midnight (hover to see other rain measurements)
** Current wind speed in m/s (hover to see current wind gust speed)